Location: Newark
(40.9833°N, 0.0333°W)
Time: 03:39:35
(UTC+00:00)

Transit 2A Rocket - Pass Details

Date: 05 November 2020
Orbit: 588 x 914 km, 66.7° (Epoch: 26 November)

Event Time Altitude Azimuth Distance (km) Brightness Sun altitude
Rises 06:46:20 0° 186° (S) 3,528 8.7 1.0°
Reaches altitude 10° 06:48:59 10° 179° (S) 2,594 8.1 1.4°
Maximum altitude 06:54:36 40° 112° (ESE) 1,299 7.2 2.4°
Drops below altitude 10° 07:00:06 10° 44° (NE) 2,536 8.0 3.4°
Sets 07:02:40 0° 37° (NE) 3,441 8.5 3.8°
